Preview of NWS' New Version of Forecast
This preview is not operational and should not be used for support decisions.

Regional Weather Roundup (RWR)

Issued by Gray - Portland, ME (GYX)

                            
477 
ASUS41 KGYX 190105
RWRGYX
WEATHER ROUNDUP FOR MAINE AND NEW HAMPSHIRE
NATIONAL WEATHER SERVICE GRAY ME
900 PM EDT WED APR 18 2018

MEZ002-005-006-010-012-015-018-020-021-024-026-027-029-190200-
MAINE
  
CITY           SKY/WX    TMP DP  RH WIND       PRES   REMARKS
PORTLAND       MOCLDY    46  31  55 SW9       29.67R                  
SANFORD        CLOUDY    44  31  60 W9        29.69R                  
BAR HARBOR     MOCLDY    41  31  67 SW3       29.64R                  
WISCASSET      MOCLDY    43  34  70 CALM      29.67R                  
ROCKLAND       CLOUDY    42  32  67 W3        29.65R                  
FRYEBURG       CLOUDY    43  32  65 VRB5      29.65R                  
LEWISTONAUBURN CLOUDY    44  31  60 SW5       29.65R                  
AUGUSTA        FAIR      43  30  60 W3        29.64R                  
WATERVILLE     FAIR      40  30  67 W6        29.61R                  
BANGOR         MOCLDY    42  31  64 VRB6      29.62R                  
GREENVILLE       N/A     36  30  79 VRB7G18   29.53R                  
MILLINOCKET    MOCLDY    39  31  72 W7        29.57R                  
HOULTON        MOCLDY    37  31  78 SW6       29.52R                  
PRESQUE ISLE   LGT RAIN  38  33  82 SW3       29.52R                  
FRENCHVILLE    MIX PCPN  35  32  88 N5        29.48R                  
CARIBOU        LGT RAIN  37  33  85 W6        29.49R                  
$$

NHZ002-005-008-009-011-012-014-190200-
NEW HAMPSHIRE
  
CITY           SKY/WX    TMP DP  RH WIND       PRES   REMARKS
PORTSMOUTH     MOCLDY    46  28  50 W10       29.69R                  
ROCHESTER      CLOUDY    45  31  58 VRB3      29.69R                  
NASHUA         CLOUDY    44  29  55 W10       29.75R                  
MANCHESTER     MOCLDY    47  27  45 W8G17     29.72R                  
CONCORD        CLOUDY    44  29  55 W10       29.71R                  
LACONIA        CLOUDY    43  30  60 SW13      29.69R                  
PLYMOUTH       CLOUDY    43  29  56 W8G16     29.68R                  
BERLIN         CLOUDY    40  30  67 CALM      29.62R                  
WHITEFIELD     CLOUDY    41  28  60 SW6       29.65R                  
JAFFREY        CLOUDY    40  30  67 W12G20    29.73R                  
KEENE          CLOUDY    41  28  60 W9        29.75R                  
LEBANON        CLOUDY    43  27  53 W10       29.70R                  
MT WASHINGTON  BLWGSNOW  18  18 100 W62G68      N/A  VSB 0   WCI  -8  
$$

VTZ005-007-008-190200-
VERMONT
  
CITY           SKY/WX    TMP DP  RH WIND       PRES   REMARKS
ST JOHNSBURY     N/A     41  29  62 MISG      29.65R                  
MONTPELIER     CLOUDY    38  30  73 VRB5      29.71R                  
BURLINGTON     CLOUDY    43  29  57 SW8       29.70R                  
$$

MAZ007-012-024-CTZ003-RIZ002-NYZ038-NYZ072-190200-
SOUTHERN NEW ENGLAND AND NY
  
CITY           SKY/WX    TMP DP  RH WIND       PRES   REMARKS
BOSTON         MOCLDY    47  29  49 W12       29.75R                  
WORCESTER      CLOUDY    40  28  62 W8        29.74R                  
NANTUCKET      FAIR      42  37  82 W15       29.78R                  
PROVIDENCE     MOCLDY    49  31  49 W7        29.76R                  
HARTFORD       CLOUDY    45  29  53 NW8       29.78R                  
ALBANY         CLOUDY    41  29  62 W6        29.79S                  
NEW YORK CITY  FAIR      52  28  39 W10       29.78R                  
$$

ANZ081-ANZ082-ANZ150-NHZ014-MEZ023>029-190200-
COASTAL MARINE OBSERVATIONS
  
STATION/POSITION TIME  TEMP    WIND        PRES    WAVE
                       AIR SEA DIR/SP/G            HT/PER
                 (UTC) (F)     (DEG/KT/KT) (MB)    (FT/S)
MOUNT DESERT ROC 0000   42     240/ 13/ 13 1003.3R
MATINICUS ROCK   0000   43     250/ 12/ 13 1003.0R
ISLE OF SHOALS   0000   47     270/ 16/ 18 1004.9R
JEFFREYS LEDGE   0036      41                N/A     4/11
CASHES LEDGE BUO 0050   43 40              1005.1R   5/ 9
$$

.............KEY..............
   WCI - WIND CHILL
   TC  - TEMPERATURE IN CELSIUS
   VSB - VISIBILITY IN MILES
   HX  - HEAT INDEX
   FAIR- INDICATES FEW OR NO CLOUDS BELOW 12,000 FT, WITH NO 
         SIGNIFICANT WEATHER AND/OR OBSTRUCTIONS TO VISIBILITY.